Weather History for K79J - May, 2013

Change the Weather History Date:

Saturday, May 25, 2013

  Actual Average (KCEW) Record (KCEW)
Temperature  
Mean Temperature 72 °F -  
Max Temperature 88 °F 85 °F 98 °F (2012)
Min Temperature 55 °F 63 °F 49 °F (1979)
Cooling Degree Days 6    
Growing Degree Days 22 (Base 50)    
Moisture  
Dew Point 49 °F    
Average Humidity 47    
Maximum Humidity 73    
Minimum Humidity 22    
Precipitation  
Precipitation 0.00 in - - ()
Sea Level Pressure  
Sea Level Pressure 30.20 in    
Wind  
Wind Speed 3 mph (ESE)    
Max Wind Speed 9 mph    
Max Gust Speed -    
Visibility 10 miles    
Events      
Averages and records for this station are not official NWS values.
T = Trace of Precipitation, MM = Missing Value Source: NWS Daily Summary

Daily Weather History Graph

Daily Weather History Graph

Search for Another Location

Airport or City:

Trip Planner

Search our weather history database for the weather conditions in past years. The results will help you decide how hot, cold, wet, or windy it might be!

Date:

Astronomy

May. 25, 2013 Rise Set
Actual Time 5:44 AM CDT 7:41 PM CDT
Civil Twilight 5:16 AM CDT 8:08 PM CDT
Nautical Twilight 4:44 AM CDT 8:41 PM CDT
Astronomical Twilight 4:08 AM CDT 9:16 PM CDT
Moon 8:29 PM CDT (5/25) 6:09 AM CDT (5/25)
Length of Visible Light 14h 51m
Length of Day
13h 57m
Full, 100% of the Moon is Illuminated
May 25
Full
May 31
Last Quarter
Jun 8
New
Jun 16
First Quarter
Jun 23
Full

Hourly Weather History & Observations

Time (CDT) Temp. Heat Index Dew Point Humidity Pressure Visibility Wind Dir Wind Speed Gust Speed Precip Events Conditions
12:56 AM 64.9 °F - 44.1 °F 47% 30.17 in 10.0 mi East 6.9 mph - N/A   Clear
1:56 AM 62.1 °F - 44.1 °F 52% 30.17 in 10.0 mi East 3.5 mph - N/A   Clear
2:56 AM 60.1 °F - 43.0 °F 53% 30.17 in 10.0 mi Calm Calm - N/A   Clear
3:56 AM 57.9 °F - 43.0 °F 58% 30.18 in 10.0 mi Calm Calm - N/A   Clear
4:56 AM 57.9 °F - 42.1 °F 56% 30.20 in 10.0 mi Calm Calm - N/A   Clear
5:56 AM 55.0 °F - 45.0 °F 69% 30.23 in 10.0 mi Calm Calm - N/A   Clear
6:56 AM 60.1 °F - 44.1 °F 55% 30.24 in 10.0 mi ENE 4.6 mph - N/A   Clear
7:56 AM 66.0 °F - 46.0 °F 48% 30.25 in 10.0 mi ESE 9.2 mph - N/A   Clear
8:56 AM 72.0 °F - 46.0 °F 40% 30.25 in 10.0 mi SE 9.2 mph - N/A   Clear
9:56 AM 77.0 °F - 48.9 °F 37% 30.26 in 10.0 mi East 8.1 mph - N/A   Clear
10:56 AM 80.1 °F - 48.0 °F 32% 30.25 in 10.0 mi South 3.5 mph - N/A   Clear
11:56 AM 82.0 °F - 43.0 °F 25% 30.24 in 10.0 mi Calm Calm - N/A   Clear
12:56 PM 82.9 °F - 44.1 °F 25% 30.22 in 10.0 mi SSE 6.9 mph - N/A   Clear
1:56 PM 84.9 °F - 42.1 °F 22% 30.19 in 10.0 mi Variable 3.5 mph - N/A   Clear
2:56 PM 87.1 °F - 44.1 °F 22% 30.18 in 10.0 mi East 4.6 mph - N/A   Clear
3:56 PM 88.0 °F - 45.0 °F 22% 30.17 in 10.0 mi Variable 3.5 mph - N/A   Clear
4:56 PM 87.1 °F - 46.0 °F 24% 30.16 in 10.0 mi Calm Calm - N/A   Clear
5:56 PM 84.0 °F 82.9 °F 55.0 °F 37% 30.16 in 10.0 mi Calm Calm - N/A   Clear
6:56 PM 80.1 °F 80.9 °F 60.1 °F 50% 30.15 in 10.0 mi Calm Calm - N/A   Clear
7:56 PM 73.0 °F - 57.0 °F 57% 30.15 in 10.0 mi Calm Calm - N/A   Clear
8:56 PM 71.1 °F - 61.0 °F 70% 30.16 in 10.0 mi Calm Calm - N/A   Clear
9:56 PM 69.1 °F - 60.1 °F 73% 30.18 in 10.0 mi Calm Calm - N/A   Clear
10:56 PM 66.0 °F - 57.0 °F 73% 30.18 in 10.0 mi Calm Calm - N/A   Clear
11:56 PM 64.9 °F - 55.9 °F 73% 30.17 in 10.0 mi Calm Calm - N/A   Clear